Printer-friendly version

IAU Minor Planet Center

Minor Planet Center

MPEC 2005-T79 : 2005 NE7

The following Minor Planet Electronic Circular may be linked-to from your own Web pages, but must not otherwise be redistributed electronically.


Read MPEC 2005-T78 Read MPEC 2005-T80


M.P.E.C. 2005-T79                                Issued 2005 Oct. 11, 22:30 UT

     The Minor Planet Electronic Circulars contain information on unusual
         minor planets and routine data on comets.  They are published
   on behalf of Commission 20 of the International Astronomical Union by the
          Minor Planet Center, Smithsonian Astrophysical Observatory,
                          Cambridge, MA 02138, U.S.A.

                  Supported in part by the Brinson Foundation
             Prepared using the Tamkin Foundation Computer Network

                              MPC@CFA.HARVARD.EDU
          URL http://cfa-www.harvard.edu/iau/mpc.html  ISSN 1523-6714

                                   2005 NE7

                           Revision to MPEC 2005-N33

Additional Observations:
     K05N07E  C2003 01 19.55664 11 34 18.08 +22 13 58.7          19.9 R ET079644
     K05N07E  C2003 01 19.56743 11 34 17.04 +22 14 11.5          19.7 R ET079644
     K05N07E  C2003 01 19.57788 11 34 16.03 +22 14 24.0          19.7 R ET079644
     K05N07E  C2003 02 03.55667 11 05 34.94 +26 55 02.9          19.9 R ET079644
     K05N07E  C2003 02 03.56708 11 05 33.52 +26 55 13.5          19.7 R ET079644

Observer details:
644 Palomar Mountain/NEAT.  Observers E. F. Helin, S. Pravdo, K. Lawrence,
    K. Kuluhiwa, M. Hicks, R. Thicksten.  Measurer R. Matson.  1.2-m Schmidt
    + CCD.

Orbital elements:
2005 NE7
Epoch 2005 Aug. 18.0 TT = JDT 2453600.5                 MPC
M 349.97133              (2000.0)            P               Q
n   0.33676100     Peri.  306.77414     +0.87777784     -0.45046596
a   2.0460749      Node    80.52203     +0.47508440     +0.77470808
e   0.6483629      Incl.    9.51526     +0.06165125     +0.44374295
P   2.93           H   19.0           G   0.15           U   2
Residuals in seconds of arc
030119 644  0.1+  0.4+    050706 673  0.1-  0.6-    050713 423  0.2-  0.0
030119 644  0.2+  0.2+    050706 413  0.2+  0.1-    050713 423  0.1+  0.1+
030119 644  0.2+  0.2+    050706 413  0.1+  0.2-    050713 423  0.1-  0.1-
030203 644  0.4+  0.2-    050710 844  2.1-  0.1+    050713 423  0.2+  0.0
030203 644  0.1+  0.5+    050710 844  0.4-  0.1-    050715 423  0.3+  0.0
050705 E12  0.0   0.0     050710 844  0.1-  0.5-    050715 423  0.2+  0.1-
050705 E12  0.1-  0.0     050710 844  1.1-  0.6+    050715 423  0.1+  0.0
050705 E12  0.5+  0.3+    050710 844  0.8-  0.1+    050718 428  0.4+  0.2+
050705 413  0.1+  0.4-    050710 844  0.7-  0.5+    050718 428  0.8+  0.1-
050705 413  0.1+  0.2-    050710 844  0.7-  0.3+    050718 428  0.2-  0.5+
050705 413  0.1+  0.1-    050710 844  1.9-  0.6+    050729 423  0.2+  0.0
050705 413  0.2+  0.2-    050710 844  0.6-  0.4+    050729 423  0.3-  0.1-
050706 I77  0.5+  0.4-    050710 844  2.2-  1.4+    050729 423  0.2-  0.3+
050706 I77  0.3+  0.7-    050711 423  0.1+  0.2+    050729 423  0.0   0.0
050706 651  0.4-  0.2-    050711 423  0.2+  0.2-    050729 423  0.1-  0.1+
050706 651  0.1-  0.1-    050711 423  0.2+  0.3+    051007 G96  0.1-  0.1-
050706 651  0.2-  0.0     050711 423  0.1-  0.0     051007 G96  0.2+  0.0
050706 673  0.1+  0.1+    050713 423  0.1-  0.1+    051007 G96  0.0   0.1-
050706 673  0.0   0.5+    050713 423  0.2+  0.2-    051007 G96  0.1-  0.2-
050706 673  0.6-  0.5+    050713 423  0.1-  0.3-

Ephemeris:
2005 NE7                 a,e,i = 2.05, 0.65, 10                  q = 0.7195
Date    TT    R. A. (2000) Decl.     Delta      r     Elong.  Phase     V
2005 10 07    09 40.49   +11 36.6    0.821    0.790    50.3    76.6    20.7
2005 10 17    10 09.41   +11 41.2    0.920    0.865    53.5    67.8    20.9
2005 10 27    10 35.97   +11 20.5    0.999    0.955    57.3    61.1    21.1
2005 11 06    10 59.67   +10 50.9    1.058    1.053    61.7    56.0    21.3
2005 11 16    11 20.35   +10 23.9    1.098    1.155    67.0    52.0    21.4
2005 11 26    11 37.94   +10 07.6    1.120    1.257    73.0    48.6    21.6
2005 12 06    11 52.33   +10 08.6    1.125    1.358    79.8    45.6    21.7
2005 12 16    12 03.26   +10 31.9    1.118    1.458    87.6    42.4    21.7
2005 12 26    12 10.43   +11 21.5    1.101    1.555    96.3    39.0    21.7
2006 01 05    12 13.37   +12 40.4    1.079    1.648   106.1    35.0    21.7
2006 01 15    12 11.61   +14 28.4    1.057    1.739   116.9    30.3    21.6
2006 01 25    12 04.89   +16 40.9    1.042    1.827   128.7    24.9    21.5
2006 02 04    11 53.30   +19 06.9    1.042    1.911   141.0    18.9    21.5
2006 02 14    11 37.79   +21 28.6    1.063    1.993   152.9    13.1    21.4
2006 02 24    11 20.14   +23 27.0    1.109    2.071   161.4     8.8    21.4
2006 03 06    11 02.61   +24 48.5    1.184    2.147   161.0     8.6    21.6
2006 03 16    10 47.34   +25 28.8    1.287    2.220   153.0    11.7    22.0

Kyle E. Smalley              (C) Copyright 2005 MPC           M.P.E.C. 2005-T79

Read MPEC 2005-T78 Read MPEC 2005-T80


Our Web policy. Index to the CBAT/MPC/ICQ pages.


Valid HTML 4.01!